Location: Flynn Junction
(40.1314°N, 99.5162°W)
Time: 21:45:08
(UTC+00:00)

ALOS - Pass Details

Date: 29 October 2020
Orbit: 684 x 684 km, 97.9° (Epoch: 01 December)

Event Time Altitude Azimuth Distance (km) Brightness Sun altitude
Rises 12:19:16 0° 357° (N) 3,057 5.5 -9.3°
Reaches altitude 10° 12:21:57 10° 342° (NNW) 2,136 4.5 -8.7°
Maximum altitude 12:25:25 21° 294° (WNW) 1,521 3.5 -8.1°
Drops below altitude 10° 12:28:52 10° 246° (WSW) 2,126 4.3 -7.5°
Sets 12:31:33 0° 230° (SW) 3,036 5.2 -7.0°
